| Date | Time | Temp. (oF) | Dew Point (oF) | Rel. Hum. (%) | Press. (in.) | Wind Dir. (deg.) | Wind Speed (mph) | Hourly Rainfall (i n.) |
|
|---|---|---|---|---|---|---|---|---|---|
| 1 | 10/18 | 24:00 | 62 | 60 | 95 | 29.94 | 330 | 1 | 0.05 |
| 2 | 10/17 | 23:00 | 63 | 61 | 95 | 29.95 | 360 | 1 | 0.01 |
| 3 | 10/17 | 22:00 | 63 | 61 | 94 | 29.97 | 360 | 1 | 0.01 |
| 4 | 10/17 | 21:00 | 64 | 62 | 96 | 29.99 | 100 | 1 | 0.02 |
| 5 | 10/17 | 20:00 | 64 | 62 | 95 | 30.01 | 100 | 1 | 0.01 |
| 6 | 10/17 | 19:00 | 64 | 62 | 94 | 30.04 | 100 | 0 | 0.00 |
| 7 | 10/17 | 18:00 | 65 | 62 | 92 | 30.06 | 100 | 0 | 0.00 |
| 8 | 10/17 | 17:00 | 65 | 61 | 89 | 30.07 | 100 | 0 | 0.00 |
| 9 | 10/17 | 16:00 | 66 | 61 | 86 | 30.10 | 30 | 0 | 0.00 |
| 10 | 10/17 | 15:00 | 67 | 61 | 82 | 30.12 | 30 | 0 | 0.00 |
| 11 | 10/17 | 14:00 | 68 | 60 | 78 | 30.16 | 30 | 1 | 0.00 |
| 12 | 10/17 | 13:00 | 67 | 61 | 83 | 30.18 | 30 | 0 | 0.00 |
| 13 | 10/17 | 12:00 | 63 | 58 | 86 | 30.20 | 30 | 1 | 0.00 |
| 14 | 10/17 | 11:00 | 59 | 55 | 88 | 30.21 | 60 | 0 | 0.00 |
| 15 | 10/17 | 10:00 | 57 | 54 | 91 | 30.22 | 10 | 1 | 0.00 |
| 16 | 10/17 | 09:00 | 55 | 52 | 92 | 30.24 | 70 | 0 | 0.00 |
| 17 | 10/17 | 08:00 | 54 | 52 | 93 | 30.23 | 70 | 0 | 0.00 |
| 18 | 10/17 | 07:00 | 53 | 50 | 91 | 30.24 | 70 | 0 | 0.00 |
| 19 | 10/17 | 06:00 | 53 | 50 | 90 | 30.25 | 70 | 0 | 0.00 |
| 20 | 10/17 | 05:00 | 54 | 50 | 88 | 30.26 | 70 | 0 | 0.00 |
| 21 | 10/17 | 04:00 | 54 | 50 | 88 | 30.27 | 70 | 0 | 0.00 |
| 22 | 10/17 | 03:00 | 54 | 50 | 87 | 30.28 | 70 | 0 | 0.00 |
| 23 | 10/17 | 02:00 | 55 | 51 | 88 | 30.30 | 70 | 0 | 0.00 |
| 24 | 10/17 | 01:00 | 55 | 51 | 88 | 30.31 | 70 | 0 | 0.00 |